MOLNIYA 3-40

Last updated on Fri Jun 23 2023 00:03:00 GMT+0000 (Coordinated Universal Time)

1 21196U 91022A 23172.78066959 -.00001121 00000+0 00000+0 0 9992 2 21196 64.9988 287.6091 6692583 269.7233 19.7335 2.03016403237154

Satellite not in orbit

MOLNIYA 3-40